Wahoo, NE

2:53 PM CDT on July 26, 2017 (GMT -0500)
Wahoo Municipal

Weather History for KAHQ - February, 2014

Change the Weather History Date:

Thursday, February 6, 2014

  Actual Average Record
Temperature  
Mean Temperature 1 °F -  
Max Temperature 9 °F 32 °F 59 °F (1966)
Min Temperature -7 °F 10 °F -12 °F (1982)
Degree Days  
Heating Degree Days 64    
Moisture  
Dew Point -9 °F    
Average Humidity 63    
Maximum Humidity 70    
Minimum Humidity 52    
Precipitation  
Precipitation 0.00 in - - ()
Sea Level Pressure  
Sea Level Pressure 30.51 in    
Wind  
Wind Speed 8 mph (West)    
Max Wind Speed 14 mph    
Max Gust Speed 16 mph    
Visibility 10 miles    
Events      
Averages and records for this station are not official NWS values.
T = Trace of Precipitation, MM = Missing Value Source: NWS Daily Summary

Daily Weather History Graph

Daily Weather History Graph

Search for Another Location

Airport or City:

Trip Planner

Search our weather history database for the weather conditions in past years. The results will help you decide how hot, cold, wet, or windy it might be!

Date:

Astronomy

Feb. 06, 2014 Rise Set
Actual Time 7:32 AM CST 5:49 PM CST
Civil Twilight 7:03 AM CST 6:18 PM CST
Nautical Twilight 6:30 AM CST 6:50 PM CST
Astronomical Twilight 5:58 AM CST 7:23 PM CST
Moon 11:21 AM CST (2/6) 12:49 AM CST (2/6)
Length of Visible Light 11h 14m
Length of Day
10h 17m
Waxing Crescent, 49% of the Moon is Illuminated
Feb 6
Waxing Crescent
Feb 6
First Quarter
Feb 14
Full
Feb 22
Last Quarter
Mar 1
New

Hourly Weather History & Observations

Time (CST) Temp. Windchill Dew Point Humidity Pressure Visibility Wind Dir Wind Speed Gust Speed Precip Events Conditions
12:15 AM -2.4 °F -18.2 °F -11.7 °F 64% 30.62 in 10.0 mi WNW 9.2 mph - N/A   Clear
12:35 AM -2.6 °F -16.0 °F -11.6 °F 65% 30.63 in 10.0 mi WNW 6.9 mph - N/A   Clear
12:55 AM -2.7 °F -16.2 °F -11.9 °F 65% 30.62 in 10.0 mi West 6.9 mph - N/A   Clear
1:15 AM -3.1 °F -17.9 °F -12.1 °F 65% 30.61 in 10.0 mi WNW 8.1 mph - N/A   Clear
1:35 AM -3.6 °F -18.6 °F -12.8 °F 65% 30.61 in 10.0 mi WNW 8.1 mph - N/A   Clear
1:55 AM -4.0 °F -17.8 °F -13.0 °F 65% 30.60 in 10.0 mi NW 6.9 mph - N/A   Clear
2:15 AM -4.4 °F -20.6 °F -13.2 °F 66% 30.60 in 10.0 mi NW 9.2 mph - N/A   Clear
2:35 AM -4.2 °F -20.4 °F -13.2 °F 65% 30.60 in 10.0 mi NW 9.2 mph - N/A   Clear
2:55 AM -4.2 °F -20.4 °F -13.0 °F 66% 30.60 in 10.0 mi WNW 9.2 mph - N/A   Clear
3:15 AM -4.0 °F -22.1 °F -13.2 °F 65% 30.59 in 10.0 mi WNW 11.5 mph - N/A   Clear
3:35 AM -4.0 °F -21.2 °F -13.2 °F 65% 30.59 in 10.0 mi WNW 10.4 mph - N/A   Clear
3:55 AM -4.4 °F -21.6 °F -13.2 °F 66% 30.59 in 10.0 mi WNW 10.4 mph - N/A   Clear
4:15 AM -4.2 °F -21.4 °F -13.4 °F 65% 30.59 in 10.0 mi WNW 10.4 mph - N/A   Clear
4:35 AM -4.5 °F -21.9 °F -13.5 °F 65% 30.59 in 10.0 mi WNW 10.4 mph - N/A   Clear
4:55 AM -5.1 °F - -14.1 °F 65% 30.58 in 10.0 mi North - - N/A   Clear
5:15 AM -5.3 °F -21.7 °F -14.1 °F 66% 30.59 in 10.0 mi WNW 9.2 mph - N/A   Clear
5:35 AM -4.9 °F -24.9 °F -13.9 °F 65% 30.58 in 10.0 mi NW 13.8 mph - N/A   Clear
5:55 AM -4.9 °F - -14.1 °F 65% 30.57 in 10.0 mi North - - N/A   Clear
6:15 AM -5.6 °F -22.2 °F -14.8 °F 65% 30.58 in 10.0 mi NW 9.2 mph - N/A   Clear
6:35 AM -6.2 °F - -14.8 °F 66% 30.58 in 10.0 mi North - - N/A   Clear
6:55 AM -6.7 °F -21.0 °F -14.8 °F 68% 30.59 in 10.0 mi WNW 6.9 mph - N/A   Clear
7:15 AM -6.5 °F -23.3 °F -14.8 °F 67% 30.59 in 10.0 mi WNW 9.2 mph - N/A   Clear
7:35 AM -6.7 °F -24.5 °F -14.8 °F 68% 30.59 in 10.0 mi WNW 10.4 mph - N/A   Clear
7:55 AM -7.1 °F -22.8 °F -15.7 °F 66% 30.60 in 10.0 mi West 8.1 mph - N/A   Clear
8:15 AM -6.7 °F -22.3 °F -15.3 °F 66% 30.60 in 10.0 mi West 8.1 mph - N/A   Clear
8:35 AM -5.8 °F -21.2 °F -14.8 °F 65% 30.60 in 10.0 mi WNW 8.1 mph - N/A   Clear
8:55 AM -4.9 °F -21.3 °F -14.3 °F 64% 30.59 in 10.0 mi WNW 9.2 mph - N/A   Clear
9:15 AM -3.5 °F -20.5 °F -13.2 °F 63% 30.59 in 10.0 mi NW 10.4 mph - N/A   Clear
9:35 AM -2.4 °F -18.2 °F -12.5 °F 62% 30.59 in 10.0 mi WNW 9.2 mph - N/A   Clear
9:55 AM -0.9 °F -16.4 °F -11.2 °F 62% 30.58 in 10.0 mi WNW 9.2 mph - N/A   Clear
10:15 AM -0.0 °F -15.3 °F -10.5 °F 61% 30.58 in 10.0 mi NW 9.2 mph - N/A   Clear
10:35 AM 1.0 °F -11.7 °F -9.2 °F 62% 30.58 in 10.0 mi NW 6.9 mph - N/A   Clear
10:55 AM 2.3 °F -8.8 °F -8.7 °F 60% 30.58 in 10.0 mi West 5.8 mph - N/A   Clear
11:15 AM 3.0 °F -9.3 °F -8.0 °F 60% 30.58 in 10.0 mi West 6.9 mph - N/A   Clear
11:35 AM 3.7 °F -7.1 °F -7.6 °F 59% 30.56 in 10.0 mi West 5.8 mph - N/A   Clear
11:55 AM 5.0 °F -8.1 °F -7.2 °F 57% 30.56 in 10.0 mi West 8.1 mph - N/A   Clear
12:15 PM 5.4 °F -7.6 °F -6.9 °F 57% 30.55 in 10.0 mi WSW 8.1 mph - N/A   Clear
12:35 PM 5.9 °F -8.9 °F -6.3 °F 57% 30.54 in 10.0 mi West 10.4 mph - N/A   Clear
12:55 PM 5.9 °F -8.0 °F -6.9 °F 56% 30.52 in 10.0 mi WNW 9.2 mph - N/A   Clear
1:15 PM 6.6 °F -7.1 °F -6.0 °F 56% 30.51 in 10.0 mi West 9.2 mph - N/A   Scattered Clouds
1:35 PM 7.7 °F -6.6 °F -5.3 °F 56% 30.50 in 10.0 mi West 10.4 mph - N/A   Mostly Cloudy
1:55 PM 8.2 °F -4.1 °F -5.8 °F 53% 30.49 in 10.0 mi West 8.1 mph - N/A   Scattered Clouds
2:15 PM 8.6 °F -4.7 °F -5.4 °F 53% 30.48 in 10.0 mi West 9.2 mph - N/A   Clear
2:35 PM 8.6 °F -6.3 °F -6.0 °F 52% 30.48 in 10.0 mi West 11.5 mph 16.1 mph N/A   Scattered Clouds
2:55 PM 8.2 °F -6.0 °F -6.2 °F 52% 30.47 in 10.0 mi West 10.4 mph 16.1 mph N/A   Clear
3:15 PM 8.2 °F -4.1 °F -5.6 °F 53% 30.47 in 10.0 mi WNW 8.1 mph - N/A   Scattered Clouds
3:35 PM 8.6 °F -5.5 °F -4.5 °F 55% 30.46 in 10.0 mi West 10.4 mph - N/A   Scattered Clouds
3:55 PM 8.8 °F -6.8 °F -3.6 °F 57% 30.45 in 10.0 mi West 12.7 mph - N/A   Scattered Clouds
4:15 PM 9.1 °F -4.9 °F -2.7 °F 59% 30.45 in 10.0 mi West 10.4 mph - N/A   Scattered Clouds
4:35 PM 9.0 °F -5.1 °F -2.7 °F 59% 30.44 in 10.0 mi West 10.4 mph - N/A   Clear
4:55 PM 8.4 °F -4.9 °F -3.1 °F 60% 30.43 in 10.0 mi West 9.2 mph - N/A   Clear
5:15 PM 7.5 °F -3.9 °F -3.6 °F 60% 30.42 in 10.0 mi WNW 6.9 mph - N/A   Clear
5:35 PM 6.3 °F -2.6 °F -4.0 °F 63% 30.41 in 10.0 mi West 4.6 mph - N/A   Clear
5:55 PM 4.6 °F -2.5 °F -4.2 °F 67% 30.41 in 10.0 mi West 3.5 mph - N/A   Clear
6:15 PM 2.7 °F -4.8 °F -5.6 °F 68% 30.41 in 10.0 mi West 3.5 mph - N/A   Clear
6:35 PM 4.3 °F -2.9 °F -4.5 °F 67% 30.41 in 10.0 mi WNW 3.5 mph - N/A   Scattered Clouds
6:55 PM 2.5 °F - -5.3 °F 70% 30.42 in 10.0 mi Calm Calm - N/A   Scattered Clouds
7:15 PM 2.8 °F - -5.6 °F 68% 30.41 in 10.0 mi Calm Calm - N/A   Scattered Clouds
7:35 PM 4.1 °F - -4.4 °F 68% 30.41 in 10.0 mi Calm Calm - N/A   Scattered Clouds
7:55 PM 3.6 °F -3.8 °F -5.1 °F 67% 30.41 in 10.0 mi South 3.5 mph - N/A   Mostly Cloudy
8:15 PM 3.7 °F -5.5 °F -5.6 °F 65% 30.41 in 10.0 mi SW 4.6 mph - N/A   Mostly Cloudy
8:35 PM 3.7 °F -3.6 °F -5.1 °F 67% 30.41 in 10.0 mi SW 3.5 mph - N/A   Mostly Cloudy
8:55 PM 4.1 °F -6.7 °F -5.1 °F 66% 30.41 in 10.0 mi WSW 5.8 mph - N/A   Overcast
9:15 PM 3.2 °F -6.2 °F -5.8 °F 66% 30.41 in 10.0 mi SW 4.6 mph - N/A   Mostly Cloudy
9:35 PM 2.5 °F -5.0 °F -5.4 °F 70% 30.41 in 10.0 mi SW 3.5 mph - N/A   Scattered Clouds
9:55 PM 3.2 °F -6.2 °F -5.1 °F 68% 30.41 in 10.0 mi SW 4.6 mph - N/A   Mostly Cloudy
10:15 PM 3.2 °F -6.2 °F -4.9 °F 69% 30.41 in 10.0 mi SW 4.6 mph - N/A   Mostly Cloudy
10:35 PM 4.1 °F -5.1 °F -4.7 °F 67% 30.40 in 10.0 mi WSW 4.6 mph - N/A   Mostly Cloudy
10:55 PM 4.6 °F -6.0 °F -4.2 °F 67% 30.39 in 10.0 mi SW 5.8 mph - N/A   Overcast
11:15 PM 4.6 °F -6.0 °F -4.2 °F 67% 30.39 in 10.0 mi SW 5.8 mph - N/A   Mostly Cloudy
11:35 PM 4.8 °F -5.8 °F -4.0 °F 67% 30.39 in 10.0 mi SW 5.8 mph - N/A   Mostly Cloudy
11:55 PM 4.5 °F -4.7 °F -3.8 °F 69% 30.38 in 10.0 mi SW 4.6 mph - N/A   Mostly Cloudy